Regional Weather Roundup
Issued by NWS

Home | Current Version | Previous Version | Text Only | Print | Product List | Glossary On
Versions: 1 2 3 4 5 6 7 8 9 10 11 12 13 14 15 16 17 18 19 20 21 22 23 24 25 26 27 28 29 30 31 32 33 34 35 36 37 38 39 40 41 42 43 44 45 46 47 48 49 50
000
ASUS43 KLOT 192009
RWRIL

ILLINOIS REGIONAL WEATHER ROUNDUP
NATIONAL WEATHER SERVICE CHICAGO/ROMEOVILLE IL
300 PM CDT THU OCT 19 2017

NOTE: "FAIR" INDICATES FEW OR NO CLOUDS BELOW 12,000 FEET WITH NO
SIGNIFICANT WEATHER AND/OR OBSTRUCTIONS TO VISIBILITY.

* THESE STATIONS ARE NOT UNDER NWS QUALITY CONTROL. THEY ALSO MAY NOT
  REPORT WEATHER SUCH AS PRECIPITATION OR FOG.

ILZ001-002-007-009-015-016-024-192100-
NORTHWEST ILLINOIS

CITY           SKY/WX    TMP DP  RH WIND       PRES   REMARKS
MOLINE         FAIR      74  42  31 SE9       30.11F
SAVANNA*       FAIR      73  32  21 S7        30.13F
$$

ILZ003-004-008-010-011-017-018-192100-
NORTH CENTRAL ILLINOIS

CITY           SKY/WX    TMP DP  RH WIND       PRES   REMARKS
ROCKFORD       PTSUNNY   71  28  20 VRB3      30.15F
FREEPORT*      FAIR      69  30  23 S5        30.16F
ROCHELLE*      FAIR      71  29  20 CALM      30.15F
DE KALB*       FAIR      70  33  25 SE3       30.16F
PERU*          FAIR      71  32  24 E7        30.15F
$$

ILZ005-006-012>014-019>023-192100-
NORTHEAST ILLINOIS

CITY           SKY/WX    TMP DP  RH WIND       PRES   REMARKS
CHICAGO-OHARE  PTSUNNY   68  28  22 SW3       30.16F
CHICAGO-MIDWAY PTSUNNY   67  25  20 E9        30.17S
AURORA         FAIR      71  33  24 E6        30.16F
LANSING*       FAIR      67  34  30 E6        30.18S
JOLIET*        FAIR      72  31  22 CALM      30.17S
WAUKEGAN       FAIR      63  28  26 SE9       30.16S
DUPAGE AIRPORT FAIR      68  28  22 CALM      30.16F
KANKAKEE*      FAIR      72  38  29 CALM      30.17S
WHEELING       FAIR      67  27  22 E7        30.17F
MORRIS*        FAIR      72  28  19 SE3       30.15F
ROMEOVILLE*    FAIR      69  31  24 CALM      30.17S
NORTHERLY ISL    N/A     62  39  42 E6          N/A
$$

LMZ740>746-192100-
SOUTHERN LAKE MICHIGAN

STATION/POSITION SKY/WX   TEMP    WIND        PRES    VSBY  WAVE
                          AIR SEA DIR/SP/G                  HT/PER
                          (F)     (DEG/KT/KT) (MB)    (MI)  (FT/S)
SOUTHERN BUOY              59 61  260/  6/  6 1021.8F         1/ 4
WILMETTE HARBOR            59 59  110/  6/  8   N/A           1
HARRISON CRIB              60      80/  5/  5   N/A
BURNHAM HARBOR             62      90/  5/  6   N/A
CALUMET HARBOR             61      30/  6/  8 1021.3F
BURNS HARBOR               60      20/  5/  6 1022.7S
MICHIGAN CITY              65     350/  5/  5   N/A
MICHIGAN CITY 6N           60 59   10/  2/  4   N/A           1/ 4
ST. JOSEPH                 60 59  360/  4/  6 1022.4          2/ 4
$$

ILZ025>027-034>036-040-047-049-050-058-095>099-192100-
WEST-CENTRAL ILLINOIS

CITY           SKY/WX    TMP DP  RH WIND       PRES   REMARKS
QUINCY         FAIR      76  52  43 S8        30.12F
GALESBURG*     FAIR      81  61  51 E6        30.14F HX  81
MACOMB*        FAIR      77  50  39 S7        30.14F
JACKSONVILLE*  FAIR      76  52  42 SE7       30.13F
PITTSFIELD*    FAIR      76  53  43 SW7       30.14F
$$

ILZ028>032-037-038-041>044-048-051>054-059>061-192100-
CENTRAL ILLINOIS

CITY           SKY/WX    TMP DP  RH WIND       PRES   REMARKS
PONTIAC        FAIR      74  47  38 SE5       30.16S
BLOOMINGTON    FAIR      75  53  46 SW7       30.16F
DECATUR        FAIR      77  52  41 S6        30.15F
PEORIA         FAIR      74  53  48 SE7       30.14F
LACON*         FAIR      74  50  42 S3        30.13F
LINCOLN*       FAIR      78  53  42 SW3       30.14F
SPRINGFIELD    FAIR      78  53  41 S6        30.14F
TAYLORVILLE    FAIR      78  51  39 SE5       30.15S
$$

ILZ033-039-045-046-055>057-062-063-192100-
EAST-CENTRAL ILLINOIS

CITY           SKY/WX    TMP DP  RH WIND       PRES   REMARKS
CHAMPAIGN      FAIR      79  49  34 SW10      30.16S
DANVILLE*      FAIR      75  51  42 W3        30.14F
RANTOUL*       FAIR      77  55  46 W5        30.16S
MATTOON        FAIR      76  52  43 SW8       30.16S
PARIS*         FAIR      77  53  43 SW5       30.17F
$$

ILZ079-100>102-192100-
SOUTHWEST ILLINOIS

CITY           SKY/WX    TMP DP  RH WIND       PRES   REMARKS
ALTON          SUNNY     75  54  46 CALM      30.16F
BELLEVILLE     FAIR      80  44  27 SW3       30.17F
CAHOKIA*       FAIR      82  46  28 W6        30.14F HX  80
SPARTA*        FAIR      79  49  34 S7        30.17F
$$

ILZ064>066-069>071-074>076-080>082-084>086-088>090-092>094-192100-
SOUTH-CENTRAL ILLINOIS

CITY           SKY/WX    TMP DP  RH WIND       PRES   REMARKS
CARBONDALE     FAIR      77  52  41 S9        30.18F
CAIRO*         FAIR      76  51  41 SW6       30.19F
EFFINGHAM*     FAIR      78  51  38 S3        30.18S
MARION         SUNNY     79  52  38 SW8       30.19S
MT. VERNON     FAIR      78  53  41 S7        30.17
CENTRALIA*     FAIR      80  50  35 SE5       30.15F
SALEM*         FAIR      80  46  29 SW6       30.16F
METROPOLIS*    FAIR      77  52  42 S6        30.21S
$$

ILZ067-068-072-073-078-083-087-091-192100-
SOUTHEAST ILLINOIS

CITY           SKY/WX    TMP DP  RH WIND       PRES   REMARKS
LAWRENCEVILLE  FAIR      76  52  43 SW7       30.18F
FLORA*         FAIR      78  51  38 S9        30.17F
FAIRFIELD*     FAIR      77  50  38 SW3       30.16F
HARRISBURG*    FAIR      77  53  43 SW5       30.18F
ROBINSON*      FAIR      76  51  42 SW3       30.18F
CARMI*         FAIR      78  51  38 SW9       30.17F
$$

ABBREVIATIONS USED IN REMARKS
   TC - TEMPERATURE IN CELSIUS
  WCI - WIND CHILL INDEX
   HX - HEAT INDEX
  VSB - VISIBILITY
$$





USA.gov is the U.S. government's official web portal to all federal, state and local government web resources and services.